Regional Weather Roundup
Issued by NWS

Home | Current Version | Previous Version | Graphics & Text | Print | Product List | Glossary On
Versions: 1 2 3 4 5 6 7 8 9 10 11 12 13 14 15 16 17 18 19 20 21 22 23 24 25 26 27 28 29 30 31 32 33 34 35 36 37 38 39 40 41 42 43 44 45 46 47 48 49 50
000
ASUS44 KMEG 222010
RWRTN
TENNESSEE HOURLY STATE WEATHER ROUNDUP
NATIONAL WEATHER SERVICE MEMPHIS TN
300 PM CDT TUE APR 22 2014

TNZ002-004-019-021-049-052-054-088>092-222100-
WEST TENNESSEE

CITY           SKY/WX    TMP DP  RH WIND       PRES   REMARKS
MEMPHIS INTL   PTSUNNY   75  59  57 NW7       29.93F
NWS MEMPHIS      N/A     75 N/A N/A MISG        N/A
JACKSON        PTSUNNY   77  58  51 NW13      29.90F
DYERSBURG      SUNNY     73  46  38 N9G17     29.94S
UNION CITY     SUNNY     72  45  37 NW15      29.91F
PARIS          MOSUNNY   71  50  47 N13       29.91S
LEXINGTON      MOSUNNY   75  55  50 W9        29.87F
$$

TNZ008-025-027-028-033-062-065-066-222100-
NORTH MIDDLE TENNESSEE

CITY           SKY/WX    TMP DP  RH WIND       PRES   REMARKS
NASHVILLE      PTSUNNY   76  56  49 NW13G18   29.85F
DICKSON        SUNNY     75  54  46 N10       29.87F
PORTLAND         N/A     73  54  49 NW14      29.85F
CLARKSVILLE    MOSUNNY   72  51  47 NW13      29.88S
SMYRNA         MOSUNNY   76  60  57 N8        29.85F
MURFREESBORO   MOSUNNY   74  59  59 W8        29.85F
COOKEVILLE       N/A     73  61  64 VRB6      29.85F
LIVINGSTON     PTSUNNY   71  56  59 NW5       29.84F
GALLATIN       MOSUNNY   77  57  49 NW14      29.85F
CROSSVILLE     PTSUNNY   66  56  70 W9        29.87F
$$

TNZ061-075-076-078-094-096-097-222100-
SOUTH MIDDLE TENNESSEE

CITY           SKY/WX    TMP DP  RH WIND       PRES   REMARKS
LEWISBURG      MOSUNNY   73  61  66 N5        29.86F
FAYETTEVILLE   MOSUNNY   70  59  68 NW5       29.87F
TULLAHOMA      MOSUNNY   70  61  73 N7        29.88F
WINCHESTER     MOSUNNY   72  61  68 W8        29.86F
MCMINNVILLE    MOSUNNY   70  64  83 W7        29.86F
COLUMBIA       MOSUNNY   73  70  88 CALM      29.86F
SHELBYVILLE    PTSUNNY   73  63  68 W8        29.88F
$$

TNZ017-018-042-046-047-222100-
NORTHEAST TENNESSEE

CITY           SKY/WX    TMP DP  RH WIND       PRES   REMARKS
TRI CITIES     CLOUDY    65  58  78 W8        29.82F
ELIZABETHTON   DRIZZLE   59  57  94 CALM      29.81F
$$

TNZ012-013-036-069-073-074-222100-
CENTRAL EAST TENNESSEE

CITY           SKY/WX    TMP DP  RH WIND       PRES   REMARKS
KNOXVILLE      CLOUDY    65  61  87 SW10      29.84F
OAK RIDGE      CLOUDY    68  61  78 SW6       29.84F
$$

TNZ083-085-099-222100-
SOUTHEAST TENNESSEE

CITY           SKY/WX    TMP DP  RH WIND       PRES   REMARKS
CHATTANOOGA    CLOUDY    66  62  87 SE3       29.85F
$$

SKY/WX REPORTED AS FAIR MEANS FEW OR NO CLOUDS BELOW
12 THOUSAND FEET.




USA.gov is the U.S. government's official web portal to all federal, state and local government web resources and services.